{"data":{"norad_id":55619,"epoch":"2026-09-20T21:21:42.247584Z","epoch_age_seconds":66682,"freshness":"FRESH","line1":"1 55619U 23020BC  26263.89007231 -.00000177  00000+0  30969-5 0  9999","line2":"2 55619  43.0029 331.7552 0001004 269.8026  90.2711 15.27574455198889","mean_motion":15.27574455,"eccentricity":0.0001004,"inclination_deg":43.0029,"raan_deg":331.7552,"arg_perigee_deg":269.8026,"mean_anomaly_deg":90.2711,"bstar":3.0969e-6,"rev_number":19888,"period_min":94.26709089607,"perigee_km":482.37683506362,"apogee_km":483.75456456574,"semimajor_km":6861.2026998147,"source":"CELESTRAK","updated_at":"2026-09-21T09:00:33.276971Z"}}